This is the latest recevied weather packets stored in our database for station/object KN6DHD. If no packets are shown the sender has not sent any weather packets the latest 10 day(s).
| Time | Temp. | Humidity | Pressure | Rain* | Wind** | Luminosity | Snow |
|---|---|---|---|---|---|---|---|
| 1777588585 | 30° C | 41% | 1011.8 hPa | 0 mm | - | 531 W/m² | - |
| 1777588280 | 29.44° C | 41% | 1011.9 hPa | 0 mm | - | 606 W/m² | - |
| 1777587975 | 29.44° C | 40% | 1011.9 hPa | 0 mm | - | 687 W/m² | - |
| 1777587672 | 29.44° C | 42% | 1012.1 hPa | 0 mm | - | 725 W/m² | - |
| 1777587366 | 29.44° C | 42% | 1012.1 hPa | 0 mm | - | 691 W/m² | - |
| 1777587062 | 28.89° C | 41% | 1012.2 hPa | 0 mm | - | 683 W/m² | - |
| 1777586758 | 28.89° C | 42% | 1012.3 hPa | 0 mm | - | 671 W/m² | - |
| 1777586454 | 28.89° C | 41% | 1012.3 hPa | 0 mm | - | 673 W/m² | - |
| 1777586149 | 29.44° C | 41% | 1012.6 hPa | 0 mm | - | 734 W/m² | - |
| 1777585847 | 28.89° C | 40% | 1012.5 hPa | 0 mm | - | 766 W/m² | - |
| 1777585547 | 28.89° C | 42% | 1012.4 hPa | 0 mm | - | 778 W/m² | - |
| 1777585243 | 28.89° C | 43% | 1012.8 hPa | 0 mm | - | 768 W/m² | - |
| 1777584938 | 28.33° C | 42% | 1012.7 hPa | 0 mm | - | 746 W/m² | - |
| 1777584636 | 28.89° C | 43% | 1012.8 hPa | 0 mm | - | 694 W/m² | - |
| 1777584332 | 27.78° C | 42% | 1012.9 hPa | 0 mm | - | 661 W/m² | - |
| 1777584028 | 28.33° C | 43% | 1013 hPa | 0 mm | - | 653 W/m² | - |
| 1777583723 | 28.33° C | 43% | 1012.9 hPa | 0 mm | - | 652 W/m² | - |
| 1777583422 | 27.78° C | 43% | 1012.9 hPa | 0 mm | - | 667 W/m² | - |
| 1777583121 | 27.78° C | 43% | 1012.8 hPa | 0 mm | - | 687 W/m² | - |
| 1777582818 | 26.67° C | 46% | 1012.8 hPa | 0 mm | - | 672 W/m² | - |
| 1777582515 | 26.11° C | 47% | 1013 hPa | 0 mm | - | 654 W/m² | - |
| 1777582210 | 26.67° C | 44% | 1013.1 hPa | 0 mm | - | 624 W/m² | - |
| 1777581908 | 27.22° C | 45% | 1012.8 hPa | 0 mm | - | 644 W/m² | - |
| 1777581603 | 27.22° C | 45% | 1013 hPa | 0 mm | - | 651 W/m² | - |
| 1777581297 | 26.67° C | 46% | 1013.2 hPa | 0 mm | - | 638 W/m² | - |
* Rain latest hour (hover to see other rain measurements)
** Current wind speed in m/s (hover to see current wind gust speed)